Alexandroupoli, Greece

3:42 PM EET on December 16, 2017 (GMT +0200)
Dimokritos

Weather History for LGAL - November, 2012

Change the Weather History Date:

Friday, November 23, 2012

  Actual Average Record
Temperature  
Mean Temperature 50 °F -  
Max Temperature 58 °F 53 °F 67 °F (2015)
Min Temperature 41 °F 39 °F 28 °F (2004)
Degree Days  
Heating Degree Days 15    
Moisture  
Dew Point 37 °F    
Average Humidity 60    
Maximum Humidity 76    
Minimum Humidity 29    
Precipitation  
Precipitation 0.00 in 0.11 in - ()
Sea Level Pressure  
Sea Level Pressure 30.27 in    
Wind  
Wind Speed 9 mph ()    
Max Wind Speed 15 mph    
Max Gust Speed -    
Visibility 6.2 miles    
Events      
Averages and records for this station are not official NWS values.
T = Trace of Precipitation, MM = Missing Value Source: Averaged Metar Reports

Daily Weather History Graph

Daily Weather History Graph

Search for Another Location

Airport or City:

Trip Planner

Search our weather history database for the weather conditions in past years. The results will help you decide how hot, cold, wet, or windy it might be!

Date:

Astronomy

Nov. 23, 2012 Rise Set
Actual Time 7:12 AM EET 4:52 PM EET
Civil Twilight 6:42 AM EET 5:22 PM EET
Nautical Twilight 6:09 AM EET 5:55 PM EET
Astronomical Twilight 5:36 AM EET 6:28 PM EET
Moon 1:59 PM EET (11/23) 2:11 AM EET (11/23)
Length of Visible Light 10h 39m
Length of Day
9h 39m
Waxing Gibbous, 77% of the Moon is Illuminated
Nov 23
Waxing Gibbous
Nov 28
Full
Dec 6
Last Quarter
Dec 13
New
Dec 20
First Quarter

Hourly Weather History & Observations

Time (EET) Temp. Windchill Dew Point Humidity Pressure Visibility Wind Dir Wind Speed Gust Speed Precip Events Conditions
12:20 AM 51.8 °F - 35.6 °F 54% 30.27 in 6.2 mi NNE 9.2 mph - N/A   Mostly Cloudy
12:50 AM 51.8 °F - 37.4 °F 58% 30.27 in 6.2 mi North 9.2 mph - N/A   Mostly Cloudy
1:20 AM 51.8 °F - 37.4 °F 58% 30.27 in 6.2 mi North 9.2 mph - N/A   Mostly Cloudy
1:50 AM 51.8 °F - 37.4 °F 58% 30.27 in 6.2 mi NNE 9.2 mph - N/A   Mostly Cloudy
2:00 AM 51 °F - 37 °F 48% 30.29 in 6 mi NNE 9.2 mph - -   Scattered Clouds
2:20 AM 51.8 °F - 37.4 °F 58% 30.27 in 6.2 mi NNE 9.2 mph - N/A   Mostly Cloudy
2:50 AM 51.8 °F - 37.4 °F 58% 30.27 in 6.2 mi NNE 10.4 mph - N/A   Mostly Cloudy
3:20 AM 51.8 °F - 41.0 °F 67% 30.27 in 6.2 mi NNE 10.4 mph - N/A   Mostly Cloudy
3:50 AM 51.8 °F - 42.8 °F 71% 30.27 in 6.2 mi NNE 9.2 mph - N/A   Mostly Cloudy
4:20 AM 51.8 °F - 42.8 °F 71% 30.27 in 6.2 mi NNE 9.2 mph - N/A   Mostly Cloudy
4:50 AM 51.8 °F - 44.6 °F 76% 30.27 in 6.2 mi NE 4.6 mph - N/A   Mostly Cloudy
5:20 AM 51.8 °F - 44.6 °F 76% 30.27 in 6.2 mi NE 4.6 mph - N/A   Mostly Cloudy
5:50 AM 48.2 °F - 41.0 °F 76% 30.27 in - ENE 4.6 mph - N/A   Clear
6:20 AM 48.2 °F - 41.0 °F 76% 30.27 in - ENE 4.6 mph - N/A   Clear
6:50 AM 48.2 °F - 41.0 °F 76% 30.27 in 6.2 mi NE 6.9 mph - N/A   Scattered Clouds
7:20 AM 46.4 °F 43.5 °F 39.2 °F 76% 30.27 in 6.2 mi NE 5.8 mph - N/A   Scattered Clouds
7:50 AM 46.4 °F 42.9 °F 37.4 °F 71% 30.27 in 6.2 mi NE 6.9 mph - N/A   Partly Cloudy
8:00 AM 46 °F - 38 °F 63% 30.30 in 6 mi NE 6.9 mph - -   Scattered Clouds
8:20 AM 48.2 °F - 37.4 °F 66% 30.30 in 6.2 mi East 4.6 mph - N/A   Partly Cloudy
8:50 AM 48.2 °F - 37.4 °F 66% 30.30 in 6.2 mi NE 10.4 mph - N/A   Partly Cloudy
9:20 AM 50.0 °F - 37.4 °F 62% 30.30 in 6.2 mi NE 13.8 mph - N/A   Partly Cloudy
9:50 AM 50.0 °F - 39.2 °F 66% 30.30 in 6.2 mi NNE 15.0 mph - N/A   Partly Cloudy
10:20 AM 50.0 °F - 39.2 °F 66% 30.30 in 6.2 mi NE 13.8 mph - N/A   Partly Cloudy
10:50 AM 53.6 °F - 33.8 °F 47% 30.30 in 6.2 mi NE 12.7 mph - N/A   Partly Cloudy
11:20 AM 55.4 °F - 35.6 °F 47% 30.30 in 6.2 mi NE 12.7 mph - N/A   Partly Cloudy
11:50 AM 55.4 °F - 35.6 °F 47% 30.27 in 6.2 mi NE 11.5 mph - N/A   Scattered Clouds
12:20 PM 57.2 °F - 39.2 °F 51% 30.27 in 6.2 mi ENE 11.5 mph - N/A   Scattered Clouds
12:50 PM 57.2 °F - 41.0 °F 55% 30.27 in 6.2 mi NE 9.2 mph - N/A   Scattered Clouds
1:20 PM 57.2 °F - 41.0 °F 55% 30.27 in 6.2 mi ENE 10.4 mph - N/A   Scattered Clouds
1:50 PM 57.2 °F - 33.8 °F 41% 30.24 in 6.2 mi East 9.2 mph - N/A   Partly Cloudy
2:00 PM 57 °F - 34 °F 29% 30.26 in 6 mi East 9.2 mph - -   Scattered Clouds
2:20 PM 59.0 °F - 35.6 °F 42% 30.24 in 6.2 mi NE 8.1 mph - N/A   Partly Cloudy
2:50 PM 59.0 °F - 35.6 °F 42% 30.24 in 6.2 mi ENE 13.8 mph - N/A   Partly Cloudy
3:20 PM 59.0 °F - 35.6 °F 42% 30.24 in 6.2 mi ENE 11.5 mph - N/A   Partly Cloudy
3:50 PM 57.2 °F - 33.8 °F 41% 30.24 in 6.2 mi ENE 12.7 mph - N/A   Partly Cloudy
4:20 PM 55.4 °F - 33.8 °F 44% 30.24 in 6.2 mi NE 11.5 mph - N/A   Partly Cloudy
4:50 PM 53.6 °F - 33.8 °F 47% 30.24 in 6.2 mi NE 11.5 mph - N/A   Scattered Clouds
5:50 PM 51.8 °F - 35.6 °F 54% 30.24 in 6.2 mi NNE 10.4 mph - N/A   Scattered Clouds
6:20 PM 48.2 °F - 33.8 °F 58% 30.24 in 6.2 mi NE 10.4 mph - N/A   Scattered Clouds
6:50 PM 48.2 °F - 33.8 °F 58% 30.24 in 6.2 mi NE 9.2 mph - N/A   Scattered Clouds
7:20 PM 46.4 °F 41.9 °F 35.6 °F 66% 30.24 in 6.2 mi NE 9.2 mph - N/A   Scattered Clouds
7:50 PM 46.4 °F 41.5 °F 35.6 °F 66% 30.24 in - NNE 10.4 mph - N/A   Clear
8:00 PM 46 °F - 35 °F 55% 30.27 in 6 mi NNE 10.4 mph - -   Mostly Cloudy
8:20 PM 46.4 °F 41.5 °F 35.6 °F 66% 30.24 in - NNE 10.4 mph - N/A   Clear
8:50 PM 46.4 °F 41.9 °F 35.6 °F 66% 30.27 in - NNE 9.2 mph - N/A   Clear
9:20 PM 46.4 °F 41.9 °F 35.6 °F 66% 30.27 in - NNE 9.2 mph - N/A   Clear
9:50 PM 44.6 °F 39.7 °F 35.6 °F 71% 30.27 in - North 9.2 mph - N/A   Clear
10:20 PM 42.8 °F 37.5 °F 35.6 °F 76% 30.27 in - North 9.2 mph - N/A   Clear
10:50 PM 42.8 °F 37.5 °F 35.6 °F 76% 30.27 in - North 9.2 mph - N/A   Clear
11:20 PM 42.8 °F 37.5 °F 35.6 °F 76% 30.27 in - North 9.2 mph - N/A   Clear
11:50 PM 41.0 °F 38.0 °F 33.8 °F 76% 30.27 in - North 4.6 mph - N/A   Clear